Cope, SC (29038)

11:54 PM EDT on August 18, 2017 (GMT -0400)
Edisto Electric HQ | | Change Station

Elev 151 ft 33.29 °N, 81.04 °W | Updated 4 seconds ago

Clear
Clear
82.1 °F
Feels Like 90 °F
N
1.2
Wind Variable Wind from SSW
Gusts 4.0 mph

Today
High -- | Low -- °F
--% Chance of Precip.
Yesterday
High -- | Low -- °F
Precip. -- in
Pressure 29.94 in
Visibility 10.0 miles
Clouds Scattered Clouds 5500 ft
Scattered Clouds 7000 ft
Heat Index 90 °F
Dew Point 76 °F
Humidity 83%
Rainfall 0.00 in
Snow Depth Not available.
6:48 AM 8:06 PM
Waning Crescent, 9% visible
METAR KOGB 190253Z AUTO 21005KT 10SM SCT055 SCT070 28/24 A2994 RMK AO2 SLP136 T02780239 51009
Pressure 29.94 in
Visibility 10.0 miles
Clouds Scattered Clouds 5500 ft
Scattered Clouds 7000 ft
Heat Index 90 °F
Dew Point 76 °F
Humidity 83%
Rainfall 0.00 in
Snow Depth Not available.
6:48 AM 8:06 PM
Waning Crescent, 9% visible
METAR KOGB 190253Z AUTO 21005KT 10SM SCT055 SCT070 28/24 A2994 RMK AO2 SLP136 T02780239 51009

Get Severe Weather Alerts

Thanks for signing up!

Be on the lookout for a verification email in your inbox.

You'll start receiving the daily forecast at 6 AM.

×

10-Day Weather Forecast

Almanac

Astronomy

Aug. 18, 2017 Rise Set
Actual Time
Civil Twilight
Nautical Twilight
Astronomical Twilight
Moon
Length of Visible Light
Length of Day
Tomorrow will be .
, % of the Moon is Illuminated

Today's Extremes

State Highs State Lows

Community

WunderPhotos

Category 6

Welcome to Category 6. This is the collective home for Weather Underground's featured writeups by Dr. Jeff Masters (right), Bob Henson (left), Chris Burt, and other regular contributors.

Nearby

Air Quality

  Air Quality AQ Index Pollutant
Not available.

Snow Depth

Station Depth Elevation

Earthquake Activity

City Distance Mag. Time & Date
Minimum magnitude displayed is 2.5.

Coastal Water Temperatures

Place Temperature

Stations

Nearby Weather Stations

Station Location Temp. Windchill Dew Point Humidity Wind Precip. Elev Updated Type
                   

Watches & Warnings

There are currently no watches in effect.